• En España
  • Lista de países
  • Para 7 días
  • Temperatura del agua
  • Mapa Satelital
  • El tiempo en el mapa
  • Informadores
  • user-avatar
    Iniciar sesión

    Tiempo cada hora Dmitrovskiy

    Hoy, 23 Septiembre, Domingo

    Tiempo Temperatura Precipitaciones Viento Presión Humedad
    00:00 +17°C° 0 mm 5 mps 741 mmHg 60%
    01:00 +17°C° 0 mm 5 mps 741 mmHg 64%
    02:00 +17°C° 0 mm 4 mps 741 mmHg 69%
    03:00 +14°C° 0.4 mm 5 mps 741 mmHg 74%
    04:00 +13°C° 0.4 mm 5 mps 741 mmHg 80%
    05:00 +10°C° 0.4 mm 6 mps 741 mmHg 85%
    06:00 +10°C° 0.6 mm 6 mps 742 mmHg 85%
    07:00 +9°C° 0.6 mm 6 mps 742 mmHg 85%
    08:00 +9°C° 0.6 mm 5 mps 742 mmHg 85%
    09:00 +9°C° 0.1 mm 5 mps 743 mmHg 82%
    10:00 +11°C° 0.1 mm 4 mps 743 mmHg 79%
    11:00 +11°C° 0.1 mm 4 mps 743 mmHg 77%
    12:00 +12°C° 0 mm 4 mps 744 mmHg 74%
    13:00 +12°C° 0 mm 4 mps 744 mmHg 72%
    14:00 +13°C° 0 mm 4 mps 744 mmHg 69%
    15:00 +13°C° 0 mm 3 mps 744 mmHg 70%
    16:00 +12°C° 0 mm 3 mps 743 mmHg 71%
    17:00 +13°C° 0 mm 2 mps 743 mmHg 73%
    18:00 +12°C° 0 mm 2 mps 743 mmHg 77%
    19:00 +10°C° 0 mm 3 mps 743 mmHg 81%
    20:00 +9°C° 0 mm 3 mps 744 mmHg 86%
    21:00 +9°C° 0 mm 3 mps 744 mmHg 87%
    22:00 +9°C° 0 mm 3 mps 744 mmHg 88%
    23:00 +8°C° 0 mm 3 mps 744 mmHg 89%

    Mañana, 24 Septiembre, Lunes

    Tiempo Temperatura Precipitaciones Viento Presión Humedad
    00:00 +8°C° 0 mm 3 mps 744 mmHg 89%
    01:00 +8°C° 0 mm 3 mps 744 mmHg 88%
    02:00 +8°C° 0 mm 3 mps 744 mmHg 88%
    03:00 +8°C° 0 mm 3 mps 743 mmHg 87%
    04:00 +8°C° 0 mm 3 mps 743 mmHg 86%
    05:00 +8°C° 0 mm 3 mps 743 mmHg 85%
    06:00 +8°C° 0 mm 4 mps 742 mmHg 82%
    07:00 +8°C° 0 mm 4 mps 742 mmHg 79%
    08:00 +9°C° 0 mm 5 mps 742 mmHg 76%
    09:00 +9°C° 0.3 mm 6 mps 741 mmHg 77%
    10:00 +10°C° 0.3 mm 6 mps 741 mmHg 78%
    11:00 +10°C° 0.3 mm 7 mps 740 mmHg 78%
    12:00 +10°C° 1.9 mm 8 mps 739 mmHg 81%
    13:00 +10°C° 1.9 mm 8 mps 737 mmHg 83%
    14:00 +10°C° 1.9 mm 9 mps 736 mmHg 85%
    15:00 +10°C° 2.7 mm 9 mps 735 mmHg 87%
    16:00 +10°C° 2.7 mm 9 mps 734 mmHg 88%
    17:00 +11°C° 2.7 mm 9 mps 732 mmHg 89%
    18:00 +11°C° 0.6 mm 9 mps 732 mmHg 88%
    19:00 +11°C° 0.6 mm 9 mps 731 mmHg 88%
    20:00 +11°C° 0.6 mm 9 mps 731 mmHg 87%
    21:00 +10°C° 0 mm 9 mps 731 mmHg 86%
    22:00 +9°C° 0 mm 8 mps 732 mmHg 85%
    23:00 +7°C° 0 mm 8 mps 732 mmHg 84%

    Pasado mañana, 25 Septiembre, Martes

    Tiempo Temperatura Precipitaciones Viento Presión Humedad
    00:00 +7°C° 0 mm 8 mps 733 mmHg 84%
    01:00 +7°C° 0 mm 8 mps 733 mmHg 85%
    02:00 +6°C° 0 mm 8 mps 734 mmHg 85%
    03:00 +6°C° 0.1 mm 8 mps 734 mmHg 85%
    04:00 +6°C° 0.1 mm 8 mps 735 mmHg 85%
    05:00 +6°C° 0.1 mm 8 mps 735 mmHg 85%
    06:00 +6°C° 0 mm 8 mps 736 mmHg 83%
    07:00 +6°C° 0 mm 8 mps 736 mmHg 81%
    08:00 +6°C° 0 mm 8 mps 737 mmHg 79%
    09:00 +6°C° 0 mm 8 mps 738 mmHg 77%
    10:00 +6°C° 0 mm 8 mps 739 mmHg 75%
    11:00 +6°C° 0 mm 8 mps 739 mmHg 73%
    12:00 +6°C° 0 mm 8 mps 740 mmHg 71%
    13:00 +6°C° 0 mm 7 mps 740 mmHg 70%
    14:00 +6°C° 0 mm 7 mps 741 mmHg 69%
    15:00 +6°C° 0 mm 7 mps 742 mmHg 69%
    16:00 +5°C° 0 mm 6 mps 742 mmHg 70%
    17:00 +5°C° 0 mm 6 mps 743 mmHg 70%
    18:00 +6°C° 0 mm 5 mps 743 mmHg 71%
    19:00 +5°C° 0 mm 5 mps 744 mmHg 71%
    20:00 +5°C° 0 mm 5 mps 744 mmHg 72%
    21:00 +5°C° 0 mm 5 mps 744 mmHg 73%
    22:00 +5°C° 0 mm 5 mps 745 mmHg 75%
    23:00 +3°C° 0 mm 5 mps 745 mmHg 76%

    26 Septiembre, Miércoles

    Tiempo Temperatura Precipitaciones Viento Presión Humedad
    00:00 +3°C° 0 mm 5 mps 746 mmHg 79%
    01:00 +3°C° 0 mm 4 mps 746 mmHg 81%
    02:00 +3°C° 0 mm 4 mps 747 mmHg 84%
    03:00 +3°C° 0 mm 4 mps 747 mmHg 85%
    04:00 +1°C° 0 mm 4 mps 748 mmHg 85%
    05:00 +1°C° 0 mm 4 mps 748 mmHg 86%
    06:00 +3°C° 0 mm 4 mps 749 mmHg 80%
    07:00 +2°C° 0 mm 5 mps 750 mmHg 74%
    08:00 +3°C° 0 mm 5 mps 750 mmHg 68%
    09:00 +5°C° 0 mm 5 mps 751 mmHg 63%
    10:00 +6°C° 0 mm 5 mps 751 mmHg 59%
    11:00 +7°C° 0 mm 5 mps 751 mmHg 54%
    12:00 +8°C° 0 mm 5 mps 751 mmHg 52%
    13:00 +8°C° 0 mm 5 mps 751 mmHg 50%
    14:00 +9°C° 0 mm 5 mps 751 mmHg 48%
    15:00 +8°C° 0 mm 4 mps 751 mmHg 53%
    16:00 +8°C° 0 mm 3 mps 751 mmHg 58%
    17:00 +8°C° 0 mm 2 mps 752 mmHg 63%
    18:00 +7°C° 0 mm 2 mps 752 mmHg 67%
    19:00 +5°C° 0 mm 3 mps 752 mmHg 72%
    20:00 +4°C° 0 mm 3 mps 752 mmHg 76%
    21:00 +4°C° 0 mm 3 mps 752 mmHg 77%
    22:00 +4°C° 0 mm 3 mps 751 mmHg 78%
    23:00 +4°C° 0 mm 4 mps 751 mmHg 79%

    27 Septiembre, Jueves

    Tiempo Temperatura Precipitaciones Viento Presión Humedad
    00:00 +4°C° 0 mm 4 mps 751 mmHg 75%
    01:00 +3°C° 0 mm 5 mps 750 mmHg 71%
    02:00 +5°C° 0 mm 5 mps 750 mmHg 67%
    03:00 +4°C° 0.1 mm 6 mps 749 mmHg 69%
    04:00 +4°C° 0.1 mm 6 mps 748 mmHg 71%
    05:00 +4°C° 0.1 mm 6 mps 747 mmHg 73%
    06:00 +4°C° 0.2 mm 7 mps 747 mmHg 73%
    07:00 +5°C° 0.2 mm 8 mps 746 mmHg 74%
    08:00 +5°C° 0.2 mm 9 mps 745 mmHg 74%
    09:00 +5°C° 0.4 mm 9 mps 745 mmHg 76%
    10:00 +5°C° 0.4 mm 10 mps 744 mmHg 77%
    11:00 +5°C° 0.4 mm 10 mps 744 mmHg 78%
    12:00 +5°C° 0.2 mm 10 mps 743 mmHg 80%
    13:00 +5°C° 0.2 mm 10 mps 743 mmHg 82%
    14:00 +5°C° 0.2 mm 10 mps 742 mmHg 85%
    15:00 +6°C° 0.1 mm 10 mps 742 mmHg 86%
    16:00 +6°C° 0.1 mm 9 mps 741 mmHg 86%
    17:00 +7°C° 0.1 mm 9 mps 741 mmHg 87%
    18:00 +7°C° 0.1 mm 9 mps 741 mmHg 88%
    19:00 +8°C° 0.1 mm 9 mps 741 mmHg 88%
    20:00 +9°C° 0.1 mm 8 mps 741 mmHg 88%
    21:00 +9°C° 0.1 mm 7 mps 742 mmHg 87%
    22:00 +8°C° 0.1 mm 6 mps 742 mmHg 86%
    23:00 +8°C° 0.1 mm 5 mps 743 mmHg 85%

    28 Septiembre, Viernes

    Tiempo Temperatura Precipitaciones Viento Presión Humedad
    00:00 +7°C° 0 mm 5 mps 743 mmHg 87%
    01:00 +6°C° 0 mm 5 mps 743 mmHg 88%
    02:00 +5°C° 0 mm 4 mps 744 mmHg 90%
    03:00 +5°C° 0 mm 4 mps 744 mmHg 91%
    04:00 +4°C° 0 mm 4 mps 744 mmHg 92%
    05:00 +4°C° 0 mm 4 mps 744 mmHg 93%
    06:00 +5°C° 0 mm 4 mps 745 mmHg 89%
    07:00 +6°C° 0 mm 4 mps 745 mmHg 85%
    08:00 +6°C° 0 mm 4 mps 745 mmHg 81%
    09:00 +8°C° 0 mm 4 mps 745 mmHg 74%
    10:00 +9°C° 0 mm 5 mps 745 mmHg 67%
    11:00 +12°C° 0 mm 5 mps 744 mmHg 59%
    12:00 +12°C° 0.2 mm 5 mps 744 mmHg 63%
    13:00 +12°C° 0.2 mm 5 mps 743 mmHg 67%
    14:00 +12°C° 0.2 mm 5 mps 742 mmHg 71%
    15:00 +11°C° 0.7 mm 6 mps 742 mmHg 76%
    16:00 +12°C° 0.7 mm 7 mps 742 mmHg 81%
    17:00 +12°C° 0.7 mm 7 mps 741 mmHg 85%
    18:00 +11°C° 0.2 mm 7 mps 742 mmHg 87%
    19:00 +10°C° 0.2 mm 6 mps 742 mmHg 89%
    20:00 +9°C° 0.2 mm 6 mps 743 mmHg 90%
    21:00 +7°C° 0 mm 5 mps 744 mmHg 89%
    22:00 +6°C° 0 mm 5 mps 745 mmHg 89%
    23:00 +5°C° 0 mm 4 mps 746 mmHg 88%
    Mostrar más